Pensacola, FL

4:30 AM CST on January 22, 2017 (GMT -0600)
Pensacola Regional

Weather History for KPNS - August, 2013

Change the Weather History Date:

Thursday, August 1, 2013

  Actual Average Record
Temperature  
Mean Temperature 81 °F 82 °F  
Max Temperature 88 °F 90 °F 104 °F (1986)
Min Temperature 74 °F 74 °F 67 °F (1967)
Cooling Degree Days 16 17  
Month to date cooling degree days 16 17  
Year to date cooling degree days 1473 1463  
Since 1 June cooling degree days 1031 1015  
Growing Degree Days 32 (Base 50)    
Moisture  
Dew Point 74 °F    
Average Humidity 81    
Maximum Humidity 94    
Minimum Humidity 68    
Precipitation  
Precipitation 1.41 in 0.25 in 5.77 in (1955)
Month to date precipitation 1.41 0.25  
Year to date precipitation 47.85 38.26  
Sea Level Pressure  
Sea Level Pressure 29.98 in    
Wind  
Wind Speed 5 mph (WSW)    
Max Wind Speed 18 mph    
Max Gust Speed 30 mph    
Visibility 8 miles    
Events Rain , Thunderstorm    
T = Trace of Precipitation, MM = Missing Value Source: NWS Daily Summary

Daily Weather History Graph

Daily Weather History Graph

Search for Another Location

Airport or City:

Trip Planner

Search our weather history database for the weather conditions in past years. The results will help you decide how hot, cold, wet, or windy it might be!

Date:

Astronomy

Aug. 01, 2013 Rise Set
Actual Time 6:07 AM CDT 7:42 PM CDT
Civil Twilight 5:41 AM CDT 8:08 PM CDT
Nautical Twilight 5:09 AM CDT 8:39 PM CDT
Astronomical Twilight 4:36 AM CDT 9:12 PM CDT
Moon 1:45 AM CDT (8/1) 3:48 PM CDT (8/1)
Length of Visible Light 14h 27m
Length of Day
13h 35m
Waning Crescent, 23% of the Moon is Illuminated
Aug 1
Waning Crescent
Aug 6
New
Aug 14
First Quarter
Aug 20
Full
Aug 28
Last Quarter

Hourly Weather History & Observations

Time (CDT) Temp. Heat Index Dew Point Humidity Pressure Visibility Wind Dir Wind Speed Gust Speed Precip Events Conditions
12:53 AM 81.0 °F 87.9 °F 77.0 °F 88% 30.00 in 10.0 mi SW 5.8 mph - N/A   Partly Cloudy
1:53 AM 82.0 °F 89.4 °F 75.9 °F 82% 29.99 in 10.0 mi WSW 6.9 mph - N/A   Clear
2:53 AM 81.0 °F 87.3 °F 75.9 °F 85% 29.97 in 10.0 mi WSW 3.5 mph - N/A   Clear
3:53 AM 81.0 °F 87.3 °F 75.9 °F 85% 29.97 in 10.0 mi WSW 4.6 mph - N/A   Clear
4:53 AM 82.0 °F 89.4 °F 75.9 °F 82% 29.98 in 10.0 mi West 3.5 mph - N/A   Clear
5:53 AM 82.0 °F 90.2 °F 77.0 °F 85% 29.99 in 10.0 mi West 4.6 mph - N/A   Clear
6:53 AM 82.0 °F 90.2 °F 77.0 °F 85% 29.99 in 10.0 mi West 4.6 mph - N/A   Partly Cloudy
7:53 AM 84.0 °F 93.7 °F 77.0 °F 79% 30.00 in 10.0 mi West 9.2 mph - N/A   Partly Cloudy
8:53 AM 86.0 °F 96.9 °F 77.0 °F 74% 30.01 in 10.0 mi WNW 8.1 mph - N/A   Clear
9:53 AM 88.0 °F 98.5 °F 75.9 °F 67% 30.00 in 10.0 mi WNW 4.6 mph - N/A   Mostly Cloudy
10:08 AM 86.0 °F 95.1 °F 75.2 °F 70% 29.99 in 6.0 mi NNW 10.4 mph 17.3 mph 0.00 in Rain , Thunderstorm Thunderstorms and Rain
10:13 AM 80.6 °F 86.2 °F 75.2 °F 84% 30.00 in 1.5 mi North 12.7 mph 17.3 mph 0.02 in Rain , Thunderstorm Thunderstorms and Rain
10:19 AM 77.0 °F - 71.6 °F 83% 30.02 in 0.2 mi South 8.1 mph 29.9 mph 0.35 in Rain , Thunderstorm Thunderstorms and Rain
10:29 AM 78.8 °F - 71.6 °F 78% 29.99 in 0.8 mi SSW 8.1 mph 24.2 mph 0.80 in Rain , Thunderstorm Thunderstorms and Rain
10:36 AM 80.6 °F 85.4 °F 73.4 °F 79% 30.00 in 7.0 mi South 4.6 mph - 0.80 in Rain , Thunderstorm Thunderstorms and Rain
10:43 AM 82.4 °F 89.5 °F 75.2 °F 79% 29.99 in 7.0 mi South 5.8 mph - 0.80 in Rain , Thunderstorm Thunderstorms and Rain
10:53 AM 82.0 °F 88.6 °F 75.0 °F 79% 29.99 in 10.0 mi South 10.4 mph - 0.80 in   Scattered Clouds
11:53 AM 82.0 °F 87.4 °F 73.0 °F 74% 30.00 in 10.0 mi WSW 9.2 mph 20.7 mph N/A   Mostly Cloudy
12:22 PM 78.8 °F - 73.4 °F 83% 30.00 in 4.0 mi SSE 5.8 mph - 0.03 in Rain , Thunderstorm Light Thunderstorms and Rain
12:53 PM 80.1 °F 85.1 °F 75.0 °F 85% 30.00 in 8.0 mi SSW 9.2 mph - 0.03 in Rain , Thunderstorm Light Thunderstorms and Rain
1:05 PM 80.6 °F 86.2 °F 75.2 °F 84% 30.02 in 1.8 mi NW 6.9 mph - 0.02 in Rain , Thunderstorm Heavy Thunderstorms and Rain
1:26 PM 75.2 °F - 71.6 °F 89% 30.01 in 0.8 mi WNW 13.8 mph 24.2 mph 0.23 in Rain , Thunderstorm Heavy Thunderstorms and Rain
1:41 PM 75.2 °F - 71.6 °F 89% 30.00 in 2.0 mi NNW 8.1 mph - 0.57 in Rain , Thunderstorm Thunderstorms and Rain
1:49 PM 75.2 °F - 71.6 °F 89% 29.99 in 8.0 mi Calm Calm - 0.57 in Rain , Thunderstorm Thunderstorms and Rain
1:53 PM 75.0 °F - 71.1 °F 87% 30.00 in 8.0 mi ESE 4.6 mph - 0.58 in Rain , Thunderstorm Light Thunderstorms and Rain
2:53 PM 81.0 °F 85.8 °F 73.0 °F 77% 29.95 in 10.0 mi SW 6.9 mph - 0.00 in   Clear
3:53 PM 79.0 °F - 73.0 °F 82% 29.94 in 10.0 mi Calm Calm - N/A   Clear
4:53 PM 80.1 °F 85.1 °F 75.0 °F 85% 29.96 in 10.0 mi WNW 5.8 mph - N/A   Partly Cloudy
5:53 PM 81.0 °F 87.3 °F 75.9 °F 85% 29.94 in 10.0 mi Calm Calm - N/A   Clear
6:53 PM 81.0 °F 86.2 °F 73.9 °F 79% 29.94 in 10.0 mi WSW 3.5 mph - N/A   Clear
7:53 PM 79.0 °F - 73.0 °F 82% 29.95 in 10.0 mi WNW 3.5 mph - N/A   Clear
8:53 PM 77.0 °F - 75.0 °F 94% 29.94 in 8.0 mi Calm Calm - N/A   Clear
9:33 PM 77.0 °F - 75.2 °F 94% 29.96 in 8.0 mi Calm Calm - N/A   Partly Cloudy
9:53 PM 77.0 °F - 73.9 °F 90% 29.97 in 7.0 mi Calm Calm - N/A   Clear
10:53 PM 77.0 °F - 73.9 °F 90% 29.98 in 10.0 mi WSW 4.6 mph - N/A   Clear
11:53 PM 77.0 °F - 72.0 °F 84% 29.97 in 10.0 mi West 4.6 mph - N/A   Clear